COSMOS 1275 DEB, 42229

Orbit data source: Space-Track

COSMOS 1275 DEB, 42229 is space debris in LEO originally from a launch on Thu, 04 Jun 1981 UTC launched from the Plesetsk Missile And Space Complex (PKMTR). Debris objects in space refer to the collection of defunct objects orbiting the Earth. Examples of debris include non-operational satellites, rocket bodies, and fragments generated from explosions, collisions, or faulty payload assembly.

Loading next visibility...
Identifier
42229, 1981-053UV
Orbit
LEO
Country
Flag of CISCIS
Related business
Manufacturer
Unknown
Mission
Spacecraft
Bus & Motor
Unknown
Mass
Unknown
Launch date (UTC)
1981-06-04 (44 years ago)
Launch vehicle
Unknown
Launch site
Plesetsk Missile And Space Complex (PKMTR)
Object type
Payload
Rocket body
Debris
Shape & HBR
Unknown shape, 0.1 m
Radar Cross Section
Small (<0.1 m²)

Expand to show TLE details & history
Last TLE update: 2 days ago

TLE from 2 days ago
0 COSMOS 1275 DEB
1 42229U 81053UV  25291.42791365  .00000783  00000-0  10803-2 0  9994
2 42229  83.0188 180.0894 0215175 181.4124 178.6439 13.48151083584404
Epoch: 2025-10-18T10:16Z
TLE epoch observation values (Epoch: 2025-10-18T10:16:11.739Z)
Latitude
0.00004°
Longitude
-1.11859°
Altitude
1,242.382 km
Speed
7.156 km/s
True Right ascension
12h 00m 21s
True Declination
0° 00' 00"
Sunlit
Object was in daylight at epoch
Visualization orbit readout
Latitude
Unknown
Longitude
Unknown
Altitude
Unknown
Speed
Unknown
Apparent Right ascension
Unknown
Apparent Declination
Unknown
Sunlit
N/A
Visualization observer readout
Local Sidereal Time
18:44:24
Azimuth
Unknown
Elevation
Unknown
Doppler factor
Unknown
Orbital elements
Apogee altitude
1,236.65 km
Perigee altitude
915.85 km
Semi-major axis
7,454.387 km
Eccentricity
0.02152
Inclination
83.0188°
RAAN
180.0894°
Arg. of periapsis
181.4124°
True anomaly
178.70072°
Mean anomaly
178.6439°
Eccentric anomaly
178.67246°
Mean motion
3.37229 °/min
Orbital period
106.75 mins
BSTAR
0.0010803
Loading maneuver chart data...
Computing Atmospheric mass density...

Documentation

Showing up to 5 results
|